When you browse on this site, cookies collect data to enhance your experience and personalize the content and advertising you see.
Visit our Privacy Policy to learn more. By continuing to use the site, you agree to this use of cookies and data.
  • In Lithuania
  • List of Countries
  • For 7 days
  • Water Temperature
  • Weather Map
  • Weather Widgets
  • user-avatar
    Login

    Hourly Weather Omaruru

    Today, 8 December, Sunday

    Time Temperature Precipitation Wind Pressure Humidity
    00:00 +20°C° 0 mm 2 mps 658 mmHg 66%
    01:00 +21°C° 0 mm 1 mps 657 mmHg 67%
    02:00 +21°C° 0 mm 1 mps 657 mmHg 68%
    03:00 +20°C° 0 mm 1 mps 657 mmHg 69%
    04:00 +20°C° 0 mm 1 mps 657 mmHg 71%
    05:00 +20°C° 0 mm 1 mps 657 mmHg 69%
    06:00 +21°C° 0 mm 1 mps 658 mmHg 67%
    07:00 +21°C° 0 mm 1 mps 658 mmHg 65%
    08:00 +23°C° 0 mm 1 mps 658 mmHg 56%
    09:00 +25°C° 0 mm 2 mps 659 mmHg 48%
    10:00 +28°C° 0 mm 2 mps 659 mmHg 40%
    11:00 +29°C° 0 mm 3 mps 659 mmHg 34%
    12:00 +30°C° 0 mm 5 mps 659 mmHg 28%
    13:00 +33°C° 0 mm 6 mps 659 mmHg 21%
    14:00 +33°C° 0 mm 6 mps 658 mmHg 22%
    15:00 +32°C° 0 mm 6 mps 658 mmHg 22%
    16:00 +32°C° 0 mm 7 mps 658 mmHg 22%
    17:00 +28°C° 0 mm 6 mps 658 mmHg 36%
    18:00 +24°C° 0 mm 6 mps 657 mmHg 50%
    19:00 +21°C° 0 mm 6 mps 657 mmHg 63%
    20:00 +21°C° 0 mm 5 mps 657 mmHg 66%
    21:00 +20°C° 0 mm 4 mps 658 mmHg 69%
    22:00 +19°C° 0 mm 3 mps 658 mmHg 72%
    23:00 +19°C° 0 mm 3 mps 658 mmHg 71%

    Tomorrow, 9 December, Monday

    Time Temperature Precipitation Wind Pressure Humidity
    00:00 +18°C° 0 mm 2 mps 657 mmHg 71%
    01:00 +18°C° 0 mm 2 mps 657 mmHg 71%
    02:00 +19°C° 0 mm 1 mps 657 mmHg 71%
    03:00 +19°C° 0 mm 1 mps 657 mmHg 72%
    04:00 +18°C° 0 mm 1 mps 656 mmHg 73%
    05:00 +19°C° 0 mm 1 mps 657 mmHg 69%
    06:00 +19°C° 0 mm 1 mps 657 mmHg 66%
    07:00 +20°C° 0 mm 1 mps 658 mmHg 62%
    08:00 +22°C° 0 mm 1 mps 658 mmHg 52%
    09:00 +24°C° 0 mm 1 mps 658 mmHg 43%
    10:00 +26°C° 0 mm 1 mps 659 mmHg 33%
    11:00 +28°C° 0 mm 2 mps 658 mmHg 28%
    12:00 +29°C° 0 mm 3 mps 658 mmHg 23%
    13:00 +32°C° 0 mm 5 mps 658 mmHg 19%
    14:00 +32°C° 0 mm 6 mps 658 mmHg 18%
    15:00 +30°C° 0 mm 7 mps 658 mmHg 17%
    16:00 +31°C° 0 mm 8 mps 657 mmHg 16%
    17:00 +28°C° 0 mm 7 mps 657 mmHg 23%
    18:00 +27°C° 0 mm 7 mps 657 mmHg 29%
    19:00 +24°C° 0 mm 7 mps 657 mmHg 36%
    20:00 +22°C° 0 mm 6 mps 658 mmHg 40%
    21:00 +21°C° 0 mm 5 mps 658 mmHg 44%
    22:00 +20°C° 0 mm 4 mps 659 mmHg 48%
    23:00 +19°C° 0 mm 3 mps 658 mmHg 48%

    Day after tomorrow, 10 December, Tuesday

    Time Temperature Precipitation Wind Pressure Humidity
    00:00 +19°C° 0 mm 2 mps 658 mmHg 48%
    01:00 +18°C° 0 mm 2 mps 658 mmHg 48%
    02:00 +18°C° 0 mm 1 mps 657 mmHg 50%
    03:00 +18°C° 0 mm 1 mps 657 mmHg 51%
    04:00 +15°C° 0 mm 0 mps 657 mmHg 53%
    05:00 +16°C° 0 mm 0 mps 657 mmHg 47%
    06:00 +17°C° 0 mm 0 mps 658 mmHg 41%
    07:00 +18°C° 0 mm 0 mps 658 mmHg 35%
    08:00 +21°C° 0 mm 0 mps 658 mmHg 28%
    09:00 +23°C° 0 mm 0 mps 659 mmHg 21%
    10:00 +25°C° 0 mm 0 mps 659 mmHg 14%
    11:00 +29°C° 0 mm 2 mps 659 mmHg 13%
    12:00 +30°C° 0 mm 3 mps 659 mmHg 13%
    13:00 +32°C° 0 mm 4 mps 659 mmHg 12%
    14:00 +32°C° 0 mm 5 mps 659 mmHg 12%
    15:00 +32°C° 0 mm 5 mps 658 mmHg 11%
    16:00 +32°C° 0 mm 6 mps 658 mmHg 11%
    17:00 +29°C° 0 mm 6 mps 658 mmHg 18%
    18:00 +27°C° 0 mm 7 mps 658 mmHg 26%
    19:00 +24°C° 0 mm 7 mps 659 mmHg 34%
    20:00 +23°C° 0 mm 6 mps 659 mmHg 38%
    21:00 +21°C° 0 mm 5 mps 659 mmHg 42%
    22:00 +20°C° 0 mm 4 mps 659 mmHg 46%
    23:00 +19°C° 0 mm 3 mps 659 mmHg 45%

    11 December, Wednesday

    Time Temperature Precipitation Wind Pressure Humidity
    00:00 +19°C° 0 mm 2 mps 658 mmHg 43%
    01:00 +18°C° 0 mm 2 mps 658 mmHg 42%
    02:00 +19°C° 0 mm 1 mps 658 mmHg 42%
    03:00 +18°C° 0 mm 1 mps 658 mmHg 42%
    04:00 +15°C° 0 mm 0 mps 658 mmHg 42%
    05:00 +17°C° 0 mm 0 mps 658 mmHg 38%
    06:00 +20°C° 0 mm 1 mps 659 mmHg 33%
    07:00 +21°C° 0 mm 1 mps 659 mmHg 28%
    08:00 +23°C° 0 mm 1 mps 660 mmHg 23%
    09:00 +26°C° 0 mm 1 mps 660 mmHg 17%
    10:00 +28°C° 0 mm 1 mps 660 mmHg 11%
    11:00 +29°C° 0 mm 2 mps 660 mmHg 10%
    12:00 +31°C° 0 mm 2 mps 660 mmHg 10%
    13:00 +33°C° 0 mm 3 mps 660 mmHg 9%
    14:00 +33°C° 0 mm 4 mps 660 mmHg 9%
    15:00 +34°C° 0 mm 5 mps 659 mmHg 10%
    16:00 +34°C° 0 mm 6 mps 659 mmHg 10%
    17:00 +32°C° 0 mm 6 mps 659 mmHg 18%
    18:00 +28°C° 0 mm 6 mps 659 mmHg 25%
    19:00 +26°C° 0 mm 7 mps 659 mmHg 33%
    20:00 +25°C° 0 mm 5 mps 659 mmHg 36%
    21:00 +23°C° 0 mm 4 mps 659 mmHg 39%
    22:00 +22°C° 0 mm 3 mps 660 mmHg 41%
    23:00 +21°C° 0 mm 2 mps 659 mmHg 42%

    12 December, Thursday

    Time Temperature Precipitation Wind Pressure Humidity
    00:00 +21°C° 0 mm 2 mps 659 mmHg 43%
    01:00 +21°C° 0 mm 1 mps 659 mmHg 44%
    02:00 +20°C° 0 mm 1 mps 658 mmHg 44%
    03:00 +20°C° 0 mm 1 mps 658 mmHg 44%
    04:00 +19°C° 0 mm 1 mps 658 mmHg 44%
    05:00 +20°C° 0 mm 1 mps 658 mmHg 40%
    06:00 +21°C° 0 mm 1 mps 659 mmHg 35%
    07:00 +22°C° 0 mm 1 mps 659 mmHg 31%
    08:00 +25°C° 0 mm 1 mps 660 mmHg 25%
    09:00 +27°C° 0 mm 1 mps 660 mmHg 18%
    10:00 +30°C° 0 mm 1 mps 661 mmHg 12%
    11:00 +31°C° 0 mm 2 mps 660 mmHg 11%
    12:00 +34°C° 0 mm 2 mps 660 mmHg 10%
    13:00 +35°C° 0 mm 2 mps 660 mmHg 9%
    14:00 +35°C° 0 mm 3 mps 660 mmHg 9%
    15:00 +36°C° 0 mm 4 mps 660 mmHg 9%
    16:00 +36°C° 0 mm 5 mps 659 mmHg 9%
    17:00 +34°C° 0 mm 5 mps 659 mmHg 15%
    18:00 +32°C° 0 mm 6 mps 659 mmHg 20%
    19:00 +28°C° 0 mm 6 mps 659 mmHg 26%
    20:00 +27°C° 0 mm 5 mps 660 mmHg 28%
    21:00 +26°C° 0 mm 4 mps 660 mmHg 30%
    22:00 +24°C° 0 mm 3 mps 660 mmHg 33%
    23:00 +24°C° 0 mm 2 mps 659 mmHg 32%

    13 December, Friday

    Time Temperature Precipitation Wind Pressure Humidity
    00:00 +23°C° 0 mm 2 mps 659 mmHg 32%
    01:00 +21°C° 0 mm 2 mps 659 mmHg 31%
    02:00 +22°C° 0 mm 1 mps 658 mmHg 32%
    03:00 +21°C° 0 mm 1 mps 658 mmHg 32%
    04:00 +21°C° 0 mm 1 mps 658 mmHg 32%
    05:00 +22°C° 0 mm 1 mps 658 mmHg 29%
    06:00 +24°C° 0 mm 1 mps 659 mmHg 25%
    07:00 +23°C° 0 mm 0 mps 659 mmHg 21%
    08:00 +28°C° 0 mm 1 mps 660 mmHg 17%
    09:00 +30°C° 0 mm 2 mps 661 mmHg 13%
    10:00 +34°C° 0 mm 2 mps 661 mmHg 9%
    11:00 +35°C° 0 mm 2 mps 661 mmHg 9%
    12:00 +36°C° 0 mm 2 mps 661 mmHg 9%
    13:00 +37°C° 0 mm 2 mps 660 mmHg 9%
    14:00 +38°C° 0 mm 3 mps 660 mmHg 9%
    15:00 +38°C° 0 mm 4 mps 660 mmHg 9%
    16:00 +39°C° 0 mm 5 mps 660 mmHg 8%
    17:00 +36°C° 0 mm 5 mps 660 mmHg 14%
    18:00 +33°C° 0 mm 6 mps 660 mmHg 20%
    19:00 +29°C° 0 mm 6 mps 660 mmHg 25%
    20:00 +28°C° 0 mm 5 mps 660 mmHg 27%
    21:00 +27°C° 0 mm 4 mps 660 mmHg 29%
    22:00 +25°C° 0 mm 2 mps 660 mmHg 31%
    23:00 +25°C° 0 mm 2 mps 660 mmHg 31%
    Show more